Skip Page Navigation
NASA JPL Caltech
NASA Logo - Jet Propulsion Laboratory + View the NASA Portal
+ Near-Earth Object (NEO) Program
Search JPL
JPL Home Earth Solar System Stars & Galaxies Technology
JPL Solar System Dynamics
BODIES ORBITS EPHEMERIDES TOOLS PHYSICAL DATA DISCOVERY FAQ SITE MAP
JPL Small-Body Database Browser
Search: [ help ]  
29423 (1997 AF22)
Classification: Main-belt Asteroid          SPK-ID: 2029423
Ephemeris | Orbit Diagram | Orbital Elements | Physical Parameters | Discovery Circumstances | Close-Approach Data ]

[ show orbit diagram ]
Orbital Elements at Epoch 2457000.5 (2014-Dec-09.0) TDB
Reference: JPL 15 (heliocentric ecliptic J2000)
 Element Value Uncertainty (1-sigma)   Units 
e .2587595067794546 5.2968e-08  
a 3.194405269447481 3.258e-08 AU
q 2.36782253747156 1.6866e-07 AU
i 16.14738929926106 9.9363e-06 deg
node 334.7606381415052 2.1068e-05 deg
peri 73.1995413194557 2.8029e-05 deg
M 93.09972606604553 1.7689e-05 deg
tp 2456461.201329537148
(2013-Jun-17.70132954)
9.9749e-05 JED
period 2085.371564132178
5.71
3.1903e-05
8.735e-08
d
yr
n .1726311062219807 2.641e-09 deg/d
Q 4.020988001423402 4.1011e-08 AU
  Orbit Determination Parameters
   # obs. used (total)      771  
   data-arc span      15564 days (42.61 yr)  
   first obs. used      1972-09-10  
   last obs. used      2015-04-22  
   planetary ephem.      DE431  
   SB-pert. ephem.      SB431-BIG16  
   condition code      0  
   fit RMS      .53698  
   data source      ORB  
   producer      Otto Matic  
   solution date      2015-Jun-04 17:00:02  

Additional Information
 Earth MOID = 1.4345 AU 
 T_jup = 3.083 
[ show covariance matrix ]

Ephemeris | Orbit Diagram | Orbital Elements | Physical Parameters | Discovery Circumstances | Close-Approach Data ]

Physical Parameter Table
Parameter Symbol Value Units Sigma Reference Notes
absolute magnitude H 12.8 mag n/a MPO319448  

29423 (1997 AF22)          Discovered 1997-Jan-09 by Ueda, S., Kaneda, H. at Kushiro
Reference: 20011002/Numbers.arcLast Updated: 2004-04-19

[ show close-approach data ]
Alternate Designations
 1997 AF22 = 1972 RD1 
Ephemeris | Orbit Diagram | Orbital Elements | Physical Parameters | Discovery Circumstances | Close-Approach Data ]
ABOUT SSD CREDITS/AWARDS PRIVACY/COPYRIGHT GLOSSARY LINKS
FirstGov 2015-Jul-02 21:29 UT
(server date/time)  
NASA Home Page
Site Manager:   Ryan S. Park
Webmaster  Alan B. Chamberlin